User: anonymous
Location: Syracuse
(43.0480°N, 76.1480°W)
Time: 22:20:31
(UTC-04:00)
Language:

Cosmos 1140 Rocket - Orbit

View from above orbital plane
View from above orbital plane
View from above satellite
View from above satellite

Ground track
Ground track

The orbit data is extracted from the following two-line orbital elements,

1 11574U 79089B   14232.42565924  .00000104  00000-0  41079-4 0  8102
2 11574 074.0723 323.1072 0014951 132.3125 299.0496 14.40246225828599
Epoch (UTC): 20 August 2014 10:12:56
Eccentricity: 0.0014951
inclination: 74.0723°
perigee height: 747 km
apogee height: 768 km
right ascension of ascending node: 323.1072°
argument of perigee: 132.3125°
revolutions per day: 14.40246225
mean anomaly at epoch: 299.0496°
orbit number at epoch: 82859

The dashed part of the orbit path shows where the satellite is in the earth's shadow,  

DLR